FW7738 Weather Reports


time (UTC)temp
C
wind
direction
speed
KPH
gust
KPH
rain 1hr
cm
rain 24hr
cm
rain mn
cm
humidity
%
barometer
mb
20260509075026 16 293 3.2 4.8 0.00 0.00 0.00 82 1010.7
20260509074022 16 311 1.6 3.2 0.00 0.00 0.00 81 1010.7
20260509073017 16 0.0 0.0 0.00 0.00 0.00 81 1010.8
20260509072033 16 256 0.0 1.6 0.00 0.00 0.00 80 1010.9
20260509071028 16 242 1.6 3.2 0.00 0.00 0.00 80 1011.0
20260509070023 16 252 1.6 3.2 0.00 0.00 0.00 81 1010.5
20260509065019 16 0.0 0.0 0.00 0.00 0.00 81 1009.9
20260509064034 16 2 3.2 6.4 0.00 0.00 0.00 82 1009.5
20260509063029 16 353 6.4 12.9 0.00 0.00 0.00 82 1009.3
20260509062025 16 8 4.8 9.7 0.00 0.00 0.00 83 1009.3
20260509061020 16 12 9.7 17.7 0.00 0.00 0.00 83 1009.2
20260509060016 16 30 1.6 4.8 0.00 0.00 0.00 82 1010.2
20260509055031 16 320 3.2 4.8 0.00 0.00 0.00 83 1010.7
20260509054027 16 331 3.2 6.4 0.00 0.00 0.00 83 1010.5
20260509053022 16 12 4.8 6.4 0.00 0.00 0.00 83 1010.2
20260509052017 16 14 6.4 11.3 0.00 0.00 0.00 83 1010.1
20260509051034 16 7 6.4 11.3 0.00 0.00 0.00 83 1010.3
20260509050029 16 6 3.2 6.4 0.00 0.00 0.00 83 1010.3
20260509045024 16 23 6.4 12.9 0.00 0.00 0.00 83 1010.0
20260509044020 16 20 6.4 11.3 0.00 0.00 0.00 83 1010.2
20260509043015 16 25 3.2 9.7 0.00 0.00 0.00 84 1009.8
20260509042031 16 31 1.6 4.8 0.00 0.00 0.00 83 1010.2
20260509041046 16 25 1.6 4.8 0.00 0.00 0.00 84 1010.2
20260509040042 16 8 1.6 4.8 0.00 0.00 0.00 84 1010.2
20260509035017 16 25 1.6 4.8 0.00 0.00 0.00 83 1010.3
20260509034033 15 15 1.6 3.2 0.00 0.00 0.00 83 1010.3
20260509033028 15 1 3.2 4.8 0.00 0.00 0.00 82 1010.3
20260509032023 16 352 3.2 6.4 0.00 0.00 0.00 81 1010.5
20260509031019 16 20 3.2 6.4 0.00 0.00 0.00 81 1010.3
20260509030034 16 21 4.8 12.9 0.00 0.00 0.00 81 1010.3
20260509025029 15 18 4.8 11.3 0.00 0.00 0.00 82 1010.5
20260509024044 15 12 4.8 9.7 0.00 0.00 0.00 82 1010.5
20260509023040 15 17 3.2 4.8 0.00 0.00 0.00 82 1010.6
20260509022015 15 355 3.2 3.2 0.00 0.00 0.00 81 1010.6
20260509021031 15 347 3.2 4.8 0.00 0.00 0.00 82 1010.8
20260509020026 15 359 3.2 4.8 0.00 0.00 0.00 83 1010.7
20260509015022 15 6 1.6 4.8 0.00 0.00 0.00 83 1010.8
20260509014016 15 16 0.0 1.6 0.00 0.00 0.00 83 1010.9
20260509013032 15 23 1.6 3.2 0.00 0.00 0.00 82 1011.1
20260509012128 16 23 3.2 6.4 0.00 0.00 0.00 81 1011.0
20260509011023 16 26 4.8 9.7 0.00 0.00 0.00 81 1011.2
20260509010018 16 20 6.4 11.3 0.00 0.00 0.00 82 1011.4
20260509005033 16 21 6.4 9.7 0.00 0.00 0.00 83 1011.5
20260509004029 16 36 3.2 9.7 0.00 0.00 0.00 84 1011.6
20260509003024 16 33 3.2 9.7 0.00 0.00 0.00 85 1011.8
20260509002020 16 21 4.8 9.7 0.00 0.00 0.00 85 1012.0
20260509001035 16 21 4.8 9.7 0.00 0.00 0.00 85 1011.8
20260509000051 16 20 3.2 6.4 0.00 0.00 0.00 85 1011.9
20260508235026 16 22 1.6 6.4 0.00 0.00 0.00 85 1012.1
20260508234021 16 23 1.6 4.8 0.00 0.00 0.00 85 1012.1
20260508233017 16 20 4.8 9.7 0.00 0.00 0.00 85 1012.0
20260508232032 16 29 3.2 9.7 0.00 0.00 0.00 85 1012.1
20260508231028 16 28 4.8 11.3 0.00 0.00 0.00 85 1012.1
20260508230023 16 17 6.4 12.9 0.00 0.00 0.00 86 1012.2
20260508225018 16 23 4.8 9.7 0.00 0.00 0.00 86 1012.2
20260508224033 16 16 4.8 9.7 0.00 0.00 0.00 86 1012.3
20260508223029 16 25 3.2 6.4 0.00 0.00 0.00 86 1012.7
20260508222023 16 29 0.0 3.2 0.00 0.00 0.00 86 1012.6
20260508221039 16 21 3.2 4.8 0.00 0.00 0.00 86 1012.6
20260508220054 16 1 1.6 3.2 0.00 0.00 0.00 86 1012.7
20260508215030 16 10 1.6 4.8 0.00 0.00 0.00 86 1012.6
20260508214026 16 1 1.6 3.2 0.00 0.00 0.00 85 1012.7
20260508213021 16 48 0.0 3.2 0.00 0.00 0.00 85 1012.6
20260508212016 16 70 0.0 1.6 0.00 0.00 0.00 85 1012.6
20260508211032 16 67 0.0 1.6 0.00 0.00 0.00 85 1012.7
20260508210048 16 71 0.0 4.8 0.00 0.00 0.00 85 1012.6
20260508205044 17 77 1.6 3.2 0.00 0.00 0.00 85 1012.6
20260508204020 17 67 0.0 4.8 0.00 0.00 0.00 85 1012.4
20260508203035 16 70 1.6 4.8 0.00 0.00 0.00 85 1012.3
20260508202050 16 84 1.6 6.4 0.00 0.00 0.00 85 1012.4
20260508201025 16 81 1.6 9.7 0.00 0.00 0.00 85 1012.3
20260508200020 16 88 3.2 6.4 0.00 0.00 0.00 85 1012.1
20260508195016 16 92 3.2 4.8 0.00 0.00 0.00 85 1012.0
20260508194031 17 91 3.2 6.4 0.00 0.00 0.00 85 1012.0
20260508193027 17 91 4.8 6.4 0.00 0.00 0.00 85 1011.9
20260508192042 17 96 4.8 9.7 0.00 0.00 0.00 85 1011.6
20260508191038 17 94 6.4 12.9 0.00 0.03 0.00 84 1011.5
20260508190033 17 93 6.4 11.3 0.00 0.10 0.00 84 1011.5
20260508185029 17 89 4.8 11.3 0.00 0.15 0.00 84 1011.4
20260508184024 17 90 8.0 16.1 0.00 0.18 0.00 82 1011.2
20260508183020 17 96 8.0 16.1 0.00 0.23 0.00 81 1011.0
20260508182035 17 90 9.7 22.5 0.00 0.30 0.00 80 1011.0
20260508181030 17 91 11.3 20.9 0.00 0.36 0.00 78 1011.0
20260508180026 18 93 12.9 20.9 0.00 0.53 0.00 77 1011.0
20260508175041 18 83 9.7 20.9 0.00 0.71 0.00 75 1011.0
20260508174016 18 84 8.0 16.1 0.00 0.76 0.00 75 1011.0
20260508173032 18 100 9.7 16.1 0.00 0.81 0.00 73 1011.0
20260508172027 18 116 8.0 14.5 0.00 0.84 0.00 72 1011.0
20260508171043 18 93 11.3 20.9 0.00 0.84 0.00 71 1010.9
20260508170018 18 99 11.3 20.9 0.00 0.84 0.00 71 1010.9
20260508165054 18 104 11.3 17.7 0.00 0.84 0.00 70 1010.9
20260508164029 18 114 9.7 16.1 0.00 0.84 0.00 69 1011.0
20260508163025 18 113 12.9 20.9 0.00 0.84 0.00 70 1011.0
20260508162020 18 94 12.9 20.9 0.00 0.84 0.00 72 1010.9
20260508161016 18 115 11.3 22.5 0.00 0.84 0.00 72 1010.9
20260508160031 18 114 11.3 24.1 0.00 0.84 0.00 75 1010.6
20260508155027 18 121 12.9 24.1 0.00 0.84 0.00 74 1010.5
20260508154023 18 107 12.9 22.5 0.00 0.84 0.00 75 1010.3
20260508153038 18 105 14.5 24.1 0.00 0.84 0.00 72 1010.4
20260508152033 18 97 12.9 25.7 0.00 0.84 0.00 74 1010.3
20260508151029 18 104 12.9 27.4 0.00 0.84 0.00 76 1010.5
20260508150025 19 116 14.5 29.0 0.00 0.84 0.00 73 1010.4
20260508145021 19 119 17.7 27.4 0.00 0.84 0.00 69 1010.7
20260508144015 19 116 16.1 25.7 0.00 0.84 0.00 68 1010.8
20260508143031 20 108 12.9 24.1 0.00 0.84 0.00 65 1011.1
20260508142026 20 62 6.4 12.9 0.00 0.84 0.00 65 1011.2
20260508141042 20 81 3.2 9.7 0.00 0.84 0.00 65 1011.3
20260508140018 19 79 8.0 16.1 0.00 0.84 0.00 68 1011.5
20260508135033 18 74 8.0 16.1 0.00 0.84 0.00 70 1011.6
20260508134029 18 73 8.0 17.7 0.00 0.84 0.00 70 1011.5
20260508133044 18 83 4.8 12.9 0.00 0.84 0.00 70 1011.6
20260508132020 18 51 3.2 6.4 0.00 0.84 0.00 71 1012.0
20260508131035 18 47 3.2 9.7 0.00 0.84 0.00 71 1012.2
20260508130030 18 101 4.8 11.3 0.00 0.84 0.00 71 1012.4
20260508125025 17 82 3.2 9.7 0.00 0.84 0.00 72 1012.2
20260508124021 17 98 3.2 9.7 0.00 0.84 0.00 72 1012.4
20260508123016 17 84 1.6 4.8 0.00 0.84 0.00 72 1012.5
20260508122051 17 93 3.2 9.7 0.00 0.84 0.00 73 1012.5
20260508121027 17 110 3.2 6.4 0.00 0.84 0.00 77 1012.6
20260508120042 17 128 1.6 6.4 0.00 0.84 0.00 76 1012.6
20260508115018 17 128 1.6 4.8 0.00 0.84 0.00 76 1012.5
20260508114033 17 80 0.0 3.2 0.00 0.84 0.00 76 1012.4
20260508113028 17 68 0.0 1.6 0.00 0.84 0.00 76 1012.4
20260508112024 17 86 1.6 3.2 0.00 0.84 0.00 76 1012.3
20260508111019 17 82 3.2 4.8 0.00 0.84 0.00 76 1012.3
20260508110035 17 102 4.8 6.4 0.00 0.84 0.00 76 1012.4
20260508105051 17 91 4.8 9.7 0.00 0.86 0.00 77 1012.5
20260508104026 17 96 4.8 9.7 0.00 0.86 0.00 76 1012.5
20260508103042 17 105 3.2 4.8 0.00 0.86 0.00 75 1012.8
20260508102017 17 108 0.0 3.2 0.00 0.86 0.00 74 1012.9
20260508101032 17 89 1.6 4.8 0.00 0.86 0.00 74 1012.8
20260508100048 17 87 1.6 3.2 0.00 0.86 0.00 74 1012.6
20260508095023 17 91 1.6 6.4 0.00 0.86 0.00 74 1012.5
20260508094019 17 97 4.8 9.7 0.00 0.86 0.00 74 1012.3
20260508093034 17 75 0.0 3.2 0.00 0.86 0.00 71 1012.4
20260508092029 18 108 3.2 9.7 0.00 0.86 0.00 68 1012.6
20260508091044 17 23 0.0 1.6 0.00 0.86 0.00 68 1012.5
20260508090020 17 298 1.6 4.8 0.00 0.86 0.00 69 1012.6
20260508085035 16 279 3.2 6.4 0.00 0.86 0.00 71 1012.5
20260508084030 16 320 1.6 3.2 0.00 0.86 0.00 73 1012.2
20260508083046 15 7 4.8 11.3 0.00 0.86 0.00 75 1011.8
20260508082021 15 309 1.6 4.8 0.00 0.86 0.00 78 1011.9
20260508081016 14 327 3.2 9.7 0.00 0.86 0.00 78 1012.0
20260508080032 14 324 4.8 9.7 0.00 0.86 0.00 78 1012.0